STARLINK-1212 (45223 NORAD) Tracking and Keplerian Element Data

This shows tracking and keplerian element data for the satellite.

Feedback or suggestion? Click here.




ElementValue
Catalog45223
NameSTARLINK-1212
Epoch Orbit751
Epoch Day94.25001157
Epoch Year2020
RAAN42.8097
Inclination52.9997
Eccentricity0.0005246
Argument of Perigee335.3234
Mean Anonmoly177.7898
Mean Motion15.62711158
Decay Rate0.00037247
L11 45223U 20012AX 20094.25001157 .00037247 00000-0 41121-3 0 9992
L22 45223 52.9997 42.8097 0005246 335.3234 177.7898 15.62711158 7516

Live tracking and technical data element details for STARLINK-1212 (NORAD 45223). STARLINK-1212 can be tracked NOW for your location showing map with azimuth and elevation plus other details from your city location.

Track the satellite on the map from your city or location and see movement details for azimuth, elevation, latitude, longitude, range, height, and movement on the map or in text.







IsCatalogInMostPopularTable: catalog: 45223, numindb: 6
Update: records affected: 1



GetName: 45223 STARLINK-1212

Hit Count: updated at: Tue, 07 Apr 2020 15:52:24 GMT